Regional Weather Roundup
Issued by NWS Green Bay, WI

Home | Current Version | Previous Version | Graphics & Text | Print | Product List | Glossary Off
Versions: 1 2 3 4 5 6 7 8 9 10 11 12 13 14 15 16 17 18 19 20 21 22 23 24 25 26 27 28 29 30 31 32 33 34 35 36 37 38 39 40 41 42 43 44 45 46 47 48 49 50

000
ASUS43 KGRB 310300
RWRGRB

NORTH-CENTRAL AND NORTHEAST WISCONSIN REGIONAL WEATHER ROUNDUP
NATIONAL WEATHER SERVICE GREEN BAY WI
1000 PM CDT THU JUL 30 2015

WIZ005-009-010>012-018-019-310400-
NORTH CENTRAL WISCONSIN

CITY           SKY/WX    TMP DP  RH WIND       PRES   REMARKS
IRONWOOD       CLEAR     64  55  72 W5        29.90R
MANITOWISH WTR NOT AVBL
ARBOR VITAE    NOT AVBL
EAGLE RIVER    NOT AVBL
LAND O LAKES   NOT AVBL
RHINELANDER    CLEAR     63  58  83 W5        29.97R
PHILLIPS       CLEAR     67  56  67 W3        29.97R
ANTIGO         NOT AVBL
TOMAHAWK       NOT AVBL
MERRILL        NOT AVBL
$$

WIZ013-073-310400-
NORTHEAST WISCONSIN

CITY           SKY/WX    TMP DP  RH WIND       PRES   REMARKS
IRON MOUNTAIN  CLEAR     65  59  81 CALM      29.91S
MARINETTE      CLEAR     64  57  77 W5        29.91S
$$

WIZ017-030-035>037-045-310400-
CENTRAL WISCONSIN

CITY           SKY/WX    TMP DP  RH WIND       PRES   REMARKS
MEDFORD        NOT AVBL
WAUSAU         CLEAR     73  57  57 W14       29.96R
MOSINEE        CLEAR     68  57  68 W8        29.99R
MARSHFIELD     CLEAR     69  56  62 W5        30.00R
WISC RAPIDS    CLEAR     71  56  58 W6        30.00R
STEVENS POINT  NOT AVBL
WAUPACA        NOT AVBL
SHAWANO        NOT AVBL
CLINTONVILLE   NOT AVBL
$$

WIZ038-039-048-051-310400-
FOX VALLEY

CITY           SKY/WX    TMP DP  RH WIND       PRES   REMARKS
NWS GREEN BAY  PTCLDY    67  59  75 W3        29.95R
APPLETON       PTCLDY    72  54  53 W3        29.97R
OSHKOSH        CLEAR     72  54  53 W3        29.97R
FOND DU LAC    CLEAR     72  56  57 W6        29.98R
$$

WIZ022-050-052-310400-
EAST CENTRAL WISCONSIN

CITY           SKY/WX    TMP DP  RH WIND       PRES   REMARKS
STURGEON BAY   CLEAR     64  57  77 SW5       29.96R
MANITOWOC      NOT AVBL
SHEBOYGAN      CLEAR     67  58  72 W6        29.97R
$$

LMZ563-521-522-541>543-310400-
LAKESHORE

STATION/POSITION TIME  TEMP    WIND        PRES    VSBY  WAVE
                       AIR SEA DIR/SP/G                  HT/PER
                 (UTC) (F)     (DEG/KT/KT) (MB)    (MI)  (FT/S)
SHEBOYGAN LKSHOR 0200   80     270/  7/  9 1014.0R
KEWAUNEE LKSHORE 0200   73     330/  2/  3 1013.2R
ALGOMA MARINA    0212             CALM       N/A
NORTHPORT PIER   0200   73     270/  5/  8 1012.2S
N MID LAKE BUOY  0150   72 69  250/ 14/ 16 1011.3S         2/ 5
S GREEN BAY BUOY 0200   69 70  290/  2/  4 1014.9R
SISTER BAY LKSHO 0229   72     280/ 14/ 15   N/A
CHAMBERS ISLAND  0200   68     230/  5/  7 1012.9S
MENOMINEE LKSHOR 0200   69     260/  5/  7 1013.9R
$$


USA.gov is the U.S. government's official web portal to all federal, state and local government web resources and services.